Regional Weather Roundup
Issued by NWS

Home | Current Version | Previous Version | Text Only | Print | Product List | Glossary Off
Versions: 1 2 3 4 5 6 7 8 9 10 11 12 13 14 15 16 17 18 19 20 21 22 23 24 25 26 27 28 29 30 31 32 33 34 35 36 37 38 39 40 41 42 43 44 45 46 47 48 49 50

000
ASUS45 KTFX 220919
RWRMT
MONTANA HOURLY WEATHER ROUNDUP
NATIONAL WEATHER SERVICE GREAT FALLS MT
319 AM MDT FRI AUG 22 2014

NOTE: "FAIR" INDICATES FEW OR NO CLOUDS BELOW 12000 FEET WITH NO
SIGNIFICANT WEATHER AND/OR OBSTRUCTIONS TO VISIBILITY.

* THESE STATIONS ARE NOT UNDER NWS QUALITY CONTROL. THEY DO NOT
   REPORT WEATHER SUCH AS PRECIPITATION OR FOG.

MTZ001>007-043-221000-
WEST OF THE DIVIDE
CITY           SKY/WX    TMP DP  RH WIND       PRES   REMARKS
KALISPELL      CLOUDY    57  45  64 NE14      30.04F
MISSOULA       CLOUDY    61  48  62 SE9       30.02F
BUTTE          CLOUDY    50  48  93 CALM      30.14R
MULLAN PASS    CLOUDY    46  45  96 E9G17     30.07F
* ESSEX        N/A       53  44  72 S2         N/A
* LINCOLN      N/A       51  48  90 E6G14      N/A
* LOOKOUT PASS N/A       52  48  86 SE1        N/A
* POLSON       N/A       51  48  90 N1         N/A
* RONAN APT    MOCLDY    54  50  86 N/A        N/A
* SEELEY LAKE  N/A       49  48  96 E2         N/A
* THOMP F APT  MOCLDY    45  42  89 N4         N/A
* YAAK HILL    N/A       56  52  87 E1         N/A
$$

MTZ008-052>055-221000-
SOUTHWEST MONTANA
CITY           SKY/WX    TMP DP  RH WIND       PRES   REMARKS
BOZEMAN        CLOUDY    52  52 100 W7        30.11S
DILLON         CLOUDY    52  48  86 NE13      30.12R
W YELLOWSTONE  CLOUDY    46  45  96 CALM      30.19S
* THREE FORKS  CLOUDY    54  36  51 W5         N/A
* BOULDER HILL N/A       48  44  86 S3         N/A
* MONIDA PASS  N/A       47  46  96 SE9        N/A
* RAYNOLDS PAS N/A       45  30  56 S4         N/A
* WHITEHALL    N/A       53  51  93 E2G7       N/A
* WISE RIVER   N/A       49  46  89 SE8        N/A
$$

MTZ009>010-012-014-046-048-049-054-221000-
EAST SLOPES AND CENTRAL MONTANA
CITY           SKY/WX    TMP DP  RH WIND       PRES   REMARKS
CUT BANK       CLOUDY    52  48  86 N7        30.17F
GREAT FALLS    CLOUDY    52  48  86 NE9       30.13S
HELENA         LGT RAIN  55  52  90 W7        30.10S
MALMSTROM AFB  CLOUDY    52  50  93 NE12      30.15F
* CONRAD       CLOUDY    52  52 100 N/A        N/A
* DEARBORN     N/A       54  49  83 N10        N/A
* EAST GLACIER N/A       46  44  93 NE4        N/A
* MONARCH      N/A       48  45  89 W1G6       N/A
* PENDROY      N/A       49  49 100 E10        N/A
* ROGERS PASS  N/A       47  47 100 SE2G8      N/A
* SAINT MARY   N/A       47  47 100 E1         N/A
* SWEET GRASS  N/A       50  50 100 N9         N/A
* WHITE SULPH  N/A       52  51  96 NE6        N/A
$$

MTZ011-013-016-021-035-040-045-047-050-051-221000-
NORTH CENTRAL MONTANA
CITY           SKY/WX    TMP DP  RH WIND       PRES   REMARKS
HAVRE          CLOUDY    55  52  90 NE7       30.12S
LEWISTOWN      FOG       54  52  93 W5        30.13F VSB 3/4
* FORT BENTON  CLOUDY    55  50  83 N6        30.14S
* CHESTER      N/A       52  47  83 NE9G14     N/A
* DENTON       N/A       52  51  96 W5         N/A
* GEYSER       N/A       52  51  96 E5         N/A
* JUDITH GAP   N/A       51  51 100 VRB11      N/A
* LOMA         N/A       55  51  86 N9         N/A
$$

MTZ017>020-022>027-061-062-221000-
NORTHEAST MONTANA
CITY           SKY/WX    TMP DP  RH WIND       PRES   REMARKS
GLASGOW        CLOUDY    61  57  87 NE13      30.06F
GLENDIVE       CLOUDY    61  61 100 N6        30.06S
JORDAN         PTCLDY    59  57  93 CALM      30.08S
SIDNEY         CLOUDY    63  61  93 N6        30.06R
WOLF POINT     LGT RAIN  63  57  81 NE6       30.06S
* BEAVER HILL  N/A       59  59 100 N/A        N/A
* CIRCLE       N/A       59  57  93 N4G9       N/A
* LINDSAY DVD  N/A       58  57  96 N3         N/A
* SACO         N/A       56  55  96 VRB6       N/A
$$

MTZ028>042-056>058-221000-
SOUTHCENTRAL AND SOUTHEAST MONTANA
CITY           SKY/WX    TMP DP  RH WIND       PRES   REMARKS
BAKER          CLOUDY    61  59  93 CALM      30.06R
BILLINGS       CLOUDY    55  54  96 N5        30.10S
LIVINGSTON     CLOUDY    55  52  90 E9        30.10F
MILES CITY     MOCLDY    61  57  87 NW5       30.05F
* LAUREL APT   CLOUDY    54  52  93 N/A        N/A
* ROUNDUP APT  CLOUDY    54  52  93 N/A        N/A
* ALZADA       N/A       60  60 100 W2         N/A
* HYSHAM       N/A       55  53  93 W2         N/A
* LAME DEER    N/A       55  55 100 N/A        N/A
* REED POINT   N/A       55  54  96 SE1        N/A
* ROSCOE HILL  N/A       51  48  90 NE2        N/A
$$

REGIONAL REPORTS...DAKOTAS
CITY           SKY/WX    TMP DP  RH WIND       PRES   REMARKS
WILLISTON      CLOUDY    63  57  81 N10       30.05R
DICKINSON      CLOUDY    63  61  93 NE5       30.02R
BEACH          FOG       59  59 100 NW3       30.06R
CROSBY         CLOUDY    59  59 100 NE5       30.09R
TIOGA          CLOUDY    59  59 100 NE8       30.08S
WATFORD CITY   CLOUDY    59  59 100 N5        30.03R
BISMARCK       LGT RAIN  66  64  93 W5        30.02R
GRAND FORKS    CLOUDY    66  66 100 NW6       29.90R
FARGO          FOG       64  64 100 CALM      29.89R VSB M1/4
BUFFALO SD     MOCLDY    61  57  87 E8        29.98S
RAPID CITY     PTCLDY    63  61  93 N24G29    30.03R
$$

REGIONAL REPORTS...WYOMING/IDAHO/WASHINGTON
CITY           SKY/WX    TMP DP  RH WIND       PRES   REMARKS
GILLETTE       CLOUDY    57  55  93 N6        30.11S
SHERIDAN       CLOUDY    59  54  84 CALM      30.12R
CODY           CLOUDY    54  52  93 E3        30.13S
YELLOWSTONE LA CLOUDY    43  43 100 CALM      30.26F
SALMON         PTCLDY    55  50  83 CALM      30.02S
MULLAN PASS    CLOUDY    46  45  96 E9G17     30.07S
SAND POINT     CLOUDY    55  54  96 NE17      29.98S
SPOKANE        MOCLDY    59  50  72 NE6       29.93S
$$

REGIONAL REPORTS...ALBERTA
CITY           SKY/WX    TMP DP  RH WIND       PRES   REMARKS
CALGARY        MOCLDY    48  45  89 NE7       30.23S
LETHBRIDGE     CLOUDY    54  52  93 NE6       30.18F
MEDICINE HAT   CLOUDY    55  52  90 NE10      30.18S
EDMONTON       FOG       34  32  92 CALM      30.28S
WATERTON GATE  N/A       46  45  96 NE3        N/A
CARDSTON       N/A       48  48 100 N1         N/A
MILK RIVER     N/A       52  50  93 N9         N/A
$$

REGIONAL REPORTS...SASKATCHEWAN
CITY           SKY/WX    TMP DP  RH WIND       PRES   REMARKS
SWIFT CURRENT  LGT RAIN  54  52  93 NE15G21   30.17R VSB 3
REGINA         CLOUDY    57  55  93 N7        30.12R
VAL MARIE      N/A       57  55  93 NE8        N/A
ASSINIBOIA     N/A       57  54  90 NE7        N/A
CORONACH       N/A       57  54  90 N7         N/A

$$



USA.gov is the U.S. government's official web portal to all federal, state and local government web resources and services.